Time,TemperatureF,DewpointF,PressureIn,WindDirection,WindDirectionDegrees,WindSpeedMPH,WindSpeedGustMPH,Humidity,HourlyPrecipIn,Conditions,Clouds,dailyrainin,SoftwareType,DateUTC
2013-02-07 00:00:00,25.5,21.3,30.24,NW,315,0.0,0.0,84,0.00,,,0.00,WUHU21623XXSP,2013-02-07 05:00:00,
2013-02-07 00:10:00,25.3,20.9,30.25,West,270,0.0,0.0,83,0.00,,,0.00,WUHU21623XXSP,2013-02-07 05:10:00,
2013-02-07 00:20:00,25.2,20.7,30.26,West,270,0.0,0.0,83,0.00,,,0.00,WUHU21623XXSP,2013-02-07 05:20:00,
2013-02-07 00:30:00,25.2,20.7,30.26,West,270,0.0,0.0,83,0.00,,,0.00,WUHU21623XXSP,2013-02-07 05:30:00,
2013-02-07 00:40:00,25.0,20.6,30.26,West,270,0.0,0.0,83,0.00,,,0.00,WUHU21623XXSP,2013-02-07 05:40:00,
2013-02-07 00:50:00,24.6,20.2,30.26,West,270,0.0,0.0,83,0.00,,,0.00,WUHU21623XXSP,2013-02-07 05:50:00,
2013-02-07 01:00:00,24.4,20.0,30.25,West,270,0.0,0.0,83,0.00,,,0.00,WUHU21623XXSP,2013-02-07 06:00:00,
2013-02-07 01:10:00,24.4,20.0,30.26,West,270,0.0,0.0,83,0.00,,,0.00,WUHU21623XXSP,2013-02-07 06:10:00,
2013-02-07 01:20:00,24.4,20.3,30.25,West,270,0.0,0.0,84,0.00,,,0.00,WUHU21623XXSP,2013-02-07 06:20:00,
2013-02-07 01:30:00,24.4,20.3,30.24,West,270,0.0,0.0,84,0.00,,,0.00,WUHU21623XXSP,2013-02-07 06:30:00,
2013-02-07 01:40:00,24.1,20.2,30.25,West,270,0.0,0.0,85,0.00,,,0.00,WUHU21623XXSP,2013-02-07 06:40:00,
2013-02-07 01:50:00,23.9,20.0,30.24,West,270,0.0,0.0,85,0.00,,,0.00,WUHU21623XXSP,2013-02-07 06:50:00,
2013-02-07 02:00:00,23.9,20.0,30.24,West,270,0.0,0.0,85,0.00,,,0.00,WUHU21623XXSP,2013-02-07 07:00:00,
2013-02-07 02:10:00,23.9,20.0,30.24,West,270,0.0,0.0,85,0.00,,,0.00,WUHU21623XXSP,2013-02-07 07:10:00,
2013-02-07 02:20:00,23.9,20.0,30.24,West,270,0.0,0.0,85,0.00,,,0.00,WUHU21623XXSP,2013-02-07 07:20:00,
2013-02-07 02:30:00,24.3,20.2,30.23,West,270,0.0,0.0,85,0.00,,,0.00,WUHU21623XXSP,2013-02-07 07:30:00,
2013-02-07 02:40:00,24.4,20.6,30.23,West,270,0.0,0.0,85,0.00,,,0.00,WUHU21623XXSP,2013-02-07 07:40:00,
2013-02-07 02:50:00,24.1,20.2,30.21,West,270,0.0,0.0,85,0.00,,,0.00,WUHU21623XXSP,2013-02-07 07:50:00,
2013-02-07 03:00:00,24.1,20.2,30.21,West,270,0.0,0.0,85,0.00,,,0.00,WUHU21623XXSP,2013-02-07 08:00:00,
2013-02-07 03:10:00,24.1,20.2,30.21,West,270,0.0,0.0,85,0.00,,,0.00,WUHU21623XXSP,2013-02-07 08:10:00,
2013-02-07 03:20:00,24.4,20.6,30.21,West,270,0.0,0.0,85,0.00,,,0.00,WUHU21623XXSP,2013-02-07 08:20:00,
2013-02-07 03:30:00,24.4,20.6,30.20,West,270,0.0,0.0,85,0.00,,,0.00,WUHU21623XXSP,2013-02-07 08:30:00,
2013-02-07 03:40:00,24.4,20.6,30.20,West,270,0.0,0.0,85,0.00,,,0.00,WUHU21623XXSP,2013-02-07 08:40:00,
2013-02-07 03:50:00,24.1,20.2,30.20,WNW,292,0.0,0.0,85,0.00,,,0.00,WUHU21623XXSP,2013-02-07 08:50:00,
2013-02-07 04:00:00,23.9,20.0,30.20,WNW,292,0.0,0.0,85,0.00,,,0.00,WUHU21623XXSP,2013-02-07 09:00:00,
2013-02-07 04:10:00,24.1,20.2,30.20,WNW,292,0.0,0.0,85,0.00,,,0.00,WUHU21623XXSP,2013-02-07 09:10:00,
2013-02-07 04:20:00,24.1,20.2,30.20,WNW,292,0.0,0.0,85,0.00,,,0.00,WUHU21623XXSP,2013-02-07 09:20:00,
2013-02-07 04:30:00,23.9,20.0,30.21,WNW,292,0.0,0.0,85,0.00,,,0.00,WUHU21623XXSP,2013-02-07 09:30:00,
2013-02-07 04:40:00,23.7,20.0,30.21,WNW,292,0.0,0.0,85,0.00,,,0.00,WUHU21623XXSP,2013-02-07 09:40:00,
2013-02-07 04:50:00,23.7,19.9,30.21,WNW,292,0.0,0.0,85,0.00,,,0.00,WUHU21623XXSP,2013-02-07 09:50:00,
2013-02-07 05:00:00,23.7,19.9,30.21,WNW,292,0.0,0.0,85,0.00,,,0.00,WUHU21623XXSP,2013-02-07 10:00:00,
2013-02-07 05:10:00,23.9,20.0,30.21,WNW,292,0.0,0.0,85,0.00,,,0.00,WUHU21623XXSP,2013-02-07 10:10:00,
2013-02-07 05:20:00,23.7,19.9,30.22,NNE,22,1.8,3.6,85,0.00,,,0.00,WUHU21623XXSP,2013-02-07 10:20:00,
2013-02-07 05:30:00,23.7,19.9,30.22,NNE,22,2.7,2.7,85,0.00,,,0.00,WUHU21623XXSP,2013-02-07 10:30:00,
2013-02-07 05:40:00,23.9,20.0,30.22,NNE,22,5.1,5.1,85,0.00,,,0.00,WUHU21623XXSP,2013-02-07 10:40:00,
2013-02-07 05:50:00,23.9,20.0,30.22,NNE,22,2.9,3.6,85,0.00,,,0.00,WUHU21623XXSP,2013-02-07 10:50:00,
2013-02-07 06:00:00,23.9,20.0,30.23,NNE,22,0.0,1.6,85,0.00,,,0.00,WUHU21623XXSP,2013-02-07 11:00:00,
2013-02-07 06:10:00,24.1,20.2,30.24,NNE,22,0.0,0.2,85,0.00,,,0.00,WUHU21623XXSP,2013-02-07 11:10:00,
2013-02-07 06:20:00,24.4,20.6,30.24,NNE,22,1.3,1.6,85,0.00,,,0.00,WUHU21623XXSP,2013-02-07 11:20:00,
2013-02-07 06:30:00,24.4,20.3,30.24,NNE,22,3.1,3.1,84,0.00,,,0.00,WUHU21623XXSP,2013-02-07 11:30:00,
2013-02-07 06:40:00,24.6,20.5,30.24,NNE,22,2.7,3.1,84,0.00,,,0.00,WUHU21623XXSP,2013-02-07 11:40:00,
2013-02-07 06:50:00,24.6,20.5,30.24,NNE,22,2.0,2.7,84,0.00,,,0.00,WUHU21623XXSP,2013-02-07 11:50:00,
2013-02-07 07:00:00,25.0,20.8,30.24,NNE,22,1.6,2.0,84,0.00,,,0.00,WUHU21623XXSP,2013-02-07 12:00:00,
2013-02-07 07:10:00,25.2,21.0,30.24,NNE,22,3.1,3.1,84,0.00,,,0.00,WUHU21623XXSP,2013-02-07 12:10:00,
2013-02-07 07:20:00,25.3,21.2,30.24,NNE,22,1.8,2.2,84,0.00,,,0.00,WUHU21623XXSP,2013-02-07 12:20:00,
2013-02-07 07:30:00,25.5,21.1,30.24,NNE,22,0.0,3.1,83,0.00,,,0.00,WUHU21623XXSP,2013-02-07 12:30:00,
2013-02-07 07:40:00,25.3,20.9,30.24,NNE,22,1.6,1.6,83,0.00,,,0.00,WUHU21623XXSP,2013-02-07 12:40:00,
2013-02-07 07:50:00,25.3,20.9,30.24,NNE,22,0.0,0.0,83,0.00,,,0.00,WUHU21623XXSP,2013-02-07 12:50:00,
2013-02-07 08:00:00,25.5,21.3,30.25,NNE,22,0.0,1.3,84,0.00,,,0.00,WUHU21623XXSP,2013-02-07 13:00:00,
2013-02-07 08:10:00,25.9,21.7,30.25,NNE,22,0.0,0.0,84,0.00,,,0.00,WUHU21623XXSP,2013-02-07 13:10:00,
2013-02-07 08:20:00,26.1,21.7,30.25,NNE,22,0.0,0.0,84,0.00,,,0.00,WUHU21623XXSP,2013-02-07 13:20:00,
2013-02-07 08:30:00,26.2,21.7,30.24,NNE,22,0.0,0.0,83,0.00,,,0.00,WUHU21623XXSP,2013-02-07 13:30:00,
2013-02-07 08:40:00,26.8,22.2,30.24,NNE,22,0.0,0.0,83,0.00,,,0.00,WUHU21623XXSP,2013-02-07 13:40:00,
2013-02-07 08:50:00,27.1,22.6,30.24,NNE,22,0.0,0.0,83,0.00,,,0.00,WUHU21623XXSP,2013-02-07 13:50:00,
2013-02-07 09:00:00,27.7,23.1,30.24,NNE,22,0.0,0.0,83,0.00,,,0.00,WUHU21623XXSP,2013-02-07 14:00:00,
2013-02-07 09:10:00,27.7,22.9,30.24,NNE,22,0.0,0.0,82,0.00,,,0.00,WUHU21623XXSP,2013-02-07 14:10:00,
2013-02-07 09:20:00,27.7,22.6,30.23,NNE,22,0.0,2.7,81,0.00,,,0.00,WUHU21623XXSP,2013-02-07 14:20:00,
2013-02-07 09:30:00,28.6,23.5,30.23,NNE,22,0.0,0.0,81,0.00,,,0.00,WUHU21623XXSP,2013-02-07 14:30:00,
2013-02-07 09:40:00,29.1,23.7,30.22,NNE,22,0.0,0.0,80,0.00,,,0.00,WUHU21623XXSP,2013-02-07 14:40:00,
2013-02-07 09:50:00,30.0,24.6,30.22,NNE,22,0.0,0.0,80,0.00,,,0.00,WUHU21623XXSP,2013-02-07 14:50:00,
2013-02-07 10:00:00,31.5,26.1,30.22,NNE,22,0.0,0.0,80,0.00,,,0.00,WUHU21623XXSP,2013-02-07 15:00:00,
2013-02-07 10:10:00,32.5,26.8,30.21,NE,45,0.0,0.0,79,0.00,,,0.00,WUHU21623XXSP,2013-02-07 15:10:00,
2013-02-07 10:20:00,32.9,26.8,30.21,NE,45,0.0,0.0,78,0.00,,,0.00,WUHU21623XXSP,2013-02-07 15:20:00,
2013-02-07 10:30:00,33.8,27.2,30.20,NE,45,0.0,0.0,77,0.00,,,0.00,WUHU21623XXSP,2013-02-07 15:30:00,
2013-02-07 10:40:00,34.3,27.5,30.20,NE,45,0.0,0.0,76,0.00,,,0.00,WUHU21623XXSP,2013-02-07 15:40:00,
2013-02-07 10:50:00,34.9,27.5,30.20,NE,45,0.0,0.0,75,0.00,,,0.00,WUHU21623XXSP,2013-02-07 15:50:00,
2013-02-07 11:00:00,35.1,27.7,30.20,NE,45,0.0,0.0,74,0.00,,,0.00,WUHU21623XXSP,2013-02-07 16:00:00,
2013-02-07 11:10:00,35.4,27.9,30.19,NE,45,0.0,0.0,74,0.00,,,0.00,WUHU21623XXSP,2013-02-07 16:10:00,
2013-02-07 11:20:00,36.3,28.1,30.19,SE,135,0.0,1.1,72,0.00,,,0.00,WUHU21623XXSP,2013-02-07 16:20:00,
2013-02-07 11:30:00,37.2,28.7,30.19,SSE,157,0.0,0.9,71,0.00,,,0.00,WUHU21623XXSP,2013-02-07 16:30:00,
2013-02-07 11:40:00,37.8,28.9,30.18,SSE,157,0.0,0.0,70,0.00,,,0.00,WUHU21623XXSP,2013-02-07 16:40:00,
2013-02-07 11:50:00,38.1,29.2,30.17,SSE,157,0.0,0.0,70,0.00,,,0.00,WUHU21623XXSP,2013-02-07 16:50:00,
2013-02-07 12:00:00,38.8,29.5,30.17,SSE,157,0.0,0.0,69,0.00,,,0.00,WUHU21623XXSP,2013-02-07 17:00:00,
2013-02-07 12:10:00,39.4,30.0,30.16,SSE,157,0.0,0.0,69,0.00,,,0.00,WUHU21623XXSP,2013-02-07 17:10:00,
2013-02-07 12:20:00,39.6,29.8,30.15,SSE,157,0.0,0.0,68,0.00,,,0.00,WUHU21623XXSP,2013-02-07 17:20:00,
2013-02-07 12:30:00,40.5,30.7,30.15,SSE,157,0.0,2.0,68,0.00,,,0.00,WUHU21623XXSP,2013-02-07 17:30:00,
2013-02-07 12:40:00,41.2,30.3,30.14,SSE,157,0.0,0.0,65,0.00,,,0.00,WUHU21623XXSP,2013-02-07 17:40:00,
2013-02-07 12:50:00,41.7,30.8,30.13,South,180,0.0,1.8,65,0.01,,,0.01,WUHU21623XXSP,2013-02-07 17:50:00,
2013-02-07 13:00:00,42.6,31.2,30.12,SSE,157,2.0,3.4,64,0.01,,,0.01,WUHU21623XXSP,2013-02-07 18:00:00,
2013-02-07 13:10:00,43.0,30.8,30.13,NW,315,2.5,2.5,62,0.01,,,0.01,WUHU21623XXSP,2013-02-07 18:10:00,
2013-02-07 13:20:00,43.0,30.4,30.13,NE,45,1.3,4.0,61,0.01,,,0.01,WUHU21623XXSP,2013-02-07 18:20:00,
2013-02-07 13:30:00,42.6,29.7,30.12,NE,45,0.9,2.2,60,0.01,,,0.01,WUHU21623XXSP,2013-02-07 18:30:00,
2013-02-07 13:40:00,43.0,30.0,30.11,ENE,67,2.2,2.9,60,0.01,,,0.01,WUHU21623XXSP,2013-02-07 18:40:00,
2013-02-07 13:50:00,43.3,30.4,30.10,ENE,67,2.0,2.2,60,0.00,,,0.01,WUHU21623XXSP,2013-02-07 18:50:00,
2013-02-07 14:00:00,43.5,30.1,30.10,ENE,67,2.9,3.1,59,0.00,,,0.01,WUHU21623XXSP,2013-02-07 19:00:00,
2013-02-07 14:10:00,43.5,29.7,30.09,ENE,67,2.5,5.6,58,0.01,,,0.02,WUHU21623XXSP,2013-02-07 19:10:00,
2013-02-07 14:20:00,43.5,29.7,30.09,NE,45,2.7,4.7,58,0.02,,,0.02,WUHU21623XXSP,2013-02-07 19:20:00,
2013-02-07 14:30:00,43.3,29.9,30.08,ENE,67,2.0,3.8,59,0.02,,,0.03,WUHU21623XXSP,2013-02-07 19:30:00,
2013-02-07 14:40:00,43.5,30.1,30.08,NE,45,2.7,3.1,59,0.03,,,0.04,WUHU21623XXSP,2013-02-07 19:40:00,
2013-02-07 14:50:00,43.5,30.1,30.08,ENE,67,2.5,2.9,59,0.03,,,0.04,WUHU21623XXSP,2013-02-07 19:50:00,
2013-02-07 15:00:00,43.9,30.5,30.08,ENE,67,3.1,3.1,59,0.04,,,0.05,WUHU21623XXSP,2013-02-07 20:00:00,
2013-02-07 15:10:00,44.2,31.3,30.08,ENE,67,0.0,2.9,60,0.04,,,0.05,WUHU21623XXSP,2013-02-07 20:10:00,
2013-02-07 15:20:00,44.4,31.5,30.07,East,90,3.1,6.7,60,0.04,,,0.06,WUHU21623XXSP,2013-02-07 20:20:00,
2013-02-07 15:30:00,44.1,30.6,30.07,East,90,3.8,6.3,59,0.04,,,0.07,WUHU21623XXSP,2013-02-07 20:30:00,
2013-02-07 15:40:00,44.1,31.1,30.06,ESE,112,5.4,5.4,60,0.04,,,0.08,WUHU21623XXSP,2013-02-07 20:40:00,
2013-02-07 15:50:00,44.2,31.3,30.06,ESE,112,1.3,7.2,60,0.04,,,0.08,WUHU21623XXSP,2013-02-07 20:50:00,
2013-02-07 16:00:00,44.2,31.3,30.07,ESE,112,1.3,1.3,60,0.04,,,0.09,WUHU21623XXSP,2013-02-07 21:00:00,
2013-02-07 16:11:00,44.2,31.3,30.06,SSE,157,0.0,1.3,60,0.04,,,0.09,WUHU21623XXSP,2013-02-07 21:11:00,
2013-02-07 16:21:00,43.7,31.3,30.06,SSE,157,0.0,0.0,60,0.03,,,0.09,WUHU21623XXSP,2013-02-07 21:21:00,
2013-02-07 16:31:00,43.5,30.9,30.06,ESE,112,0.0,0.0,61,0.03,,,0.10,WUHU21623XXSP,2013-02-07 21:31:00,
2013-02-07 16:41:00,43.2,30.8,30.06,ENE,67,3.4,3.4,61,0.02,,,0.10,WUHU21623XXSP,2013-02-07 21:41:00,
2013-02-07 16:51:00,43.0,30.8,30.05,ESE,112,0.0,3.4,62,0.02,,,0.10,WUHU21623XXSP,2013-02-07 21:51:00,
2013-02-07 17:01:00,43.0,30.8,30.05,ESE,112,0.0,0.0,62,0.02,,,0.10,WUHU21623XXSP,2013-02-07 22:01:00,
2013-02-07 17:11:00,43.0,30.8,30.04,ESE,112,2.5,2.5,62,0.01,,,0.10,WUHU21623XXSP,2013-02-07 22:11:00,
2013-02-07 17:21:00,43.0,30.8,30.04,ESE,112,2.5,2.5,62,0.02,,,0.11,WUHU21623XXSP,2013-02-07 22:21:00,
2013-02-07 17:31:00,41.5,29.8,30.04,East,90,3.1,3.8,63,0.01,,,0.11,WUHU21623XXSP,2013-02-07 22:31:00,
2013-02-07 17:41:00,40.8,29.6,30.05,SE,135,1.1,2.9,64,0.01,,,0.11,WUHU21623XXSP,2013-02-07 22:41:00,
2013-02-07 17:51:00,40.5,29.2,30.05,ESE,112,4.9,7.4,64,0.01,,,0.11,WUHU21623XXSP,2013-02-07 22:51:00,
2013-02-07 18:01:00,39.9,29.0,30.05,East,90,4.3,4.5,65,0.01,,,0.11,WUHU21623XXSP,2013-02-07 23:01:00,
2013-02-07 18:11:00,39.7,28.9,30.06,ESE,112,2.5,5.6,65,0.01,,,0.12,WUHU21623XXSP,2013-02-07 23:11:00,
2013-02-07 18:21:00,39.6,28.7,30.05,SSE,157,7.6,7.6,65,0.01,,,0.12,WUHU21623XXSP,2013-02-07 23:21:00,
2013-02-07 18:31:00,39.0,28.5,30.05,ESE,112,0.9,7.6,66,0.02,,,0.12,WUHU21623XXSP,2013-02-07 23:31:00,
2013-02-07 18:41:00,38.8,28.4,30.05,SE,135,0.0,7.8,66,0.02,,,0.13,WUHU21623XXSP,2013-02-07 23:41:00,
2013-02-07 18:51:00,38.8,28.4,30.05,SE,135,5.1,5.1,66,0.02,,,0.13,WUHU21623XXSP,2013-02-07 23:51:00,
2013-02-07 19:01:00,38.5,28.0,30.05,SSE,157,8.3,8.3,66,0.02,,,0.13,WUHU21623XXSP,2013-02-08 00:01:00,
2013-02-07 19:11:00,38.3,28.3,30.04,SE,135,0.7,7.8,67,0.02,,,0.13,WUHU21623XXSP,2013-02-08 00:11:00,
2013-02-07 19:21:00,37.8,28.1,30.04,SE,135,0.0,0.0,68,0.02,,,0.13,WUHU21623XXSP,2013-02-08 00:21:00,
2013-02-07 19:31:00,37.6,28.0,30.04,East,90,1.3,1.6,68,0.01,,,0.13,WUHU21623XXSP,2013-02-08 00:31:00,
2013-02-07 19:41:00,37.4,28.2,30.03,SSE,157,0.0,1.1,69,0.00,,,0.13,WUHU21623XXSP,2013-02-08 00:41:00,
2013-02-07 19:51:00,37.2,28.0,30.03,SSE,157,0.0,0.0,69,0.00,,,0.13,WUHU21623XXSP,2013-02-08 00:51:00,
2013-02-07 20:01:00,37.2,28.4,30.02,SSE,157,0.0,0.0,70,0.00,,,0.13,WUHU21623XXSP,2013-02-08 01:01:00,
2013-02-07 20:11:00,37.0,28.2,30.02,SSE,157,1.3,1.3,70,0.00,,,0.13,WUHU21623XXSP,2013-02-08 01:11:00,
2013-02-07 20:21:00,37.0,28.2,30.03,SE,135,0.0,0.0,70,0.00,,,0.13,WUHU21623XXSP,2013-02-08 01:21:00,
2013-02-07 20:31:00,37.0,28.5,30.03,South,180,1.3,1.3,71,0.00,,,0.13,WUHU21623XXSP,2013-02-08 01:31:00,
2013-02-07 20:41:00,37.2,28.7,30.02,WSW,247,2.7,2.7,71,0.00,,,0.13,WUHU21623XXSP,2013-02-08 01:41:00,
2013-02-07 20:51:00,37.6,29.1,30.02,SSW,202,0.0,2.7,71,0.00,,,0.13,WUHU21623XXSP,2013-02-08 01:51:00,
2013-02-07 21:01:00,37.2,28.7,30.01,South,180,0.0,0.0,71,0.00,,,0.13,WUHU21623XXSP,2013-02-08 02:01:00,
2013-02-07 21:11:00,37.0,28.9,30.02,South,180,0.0,0.0,72,0.00,,,0.13,WUHU21623XXSP,2013-02-08 02:11:00,
2013-02-07 21:21:00,36.9,28.7,30.01,South,180,0.0,2.0,72,0.00,,,0.13,WUHU21623XXSP,2013-02-08 02:21:00,
2013-02-07 21:31:00,36.9,28.7,30.01,South,180,0.9,0.9,72,0.00,,,0.13,WUHU21623XXSP,2013-02-08 02:31:00,
2013-02-07 21:41:00,36.7,28.5,30.00,SW,225,0.0,0.9,72,0.00,,,0.13,WUHU21623XXSP,2013-02-08 02:41:00,
2013-02-07 21:51:00,36.7,28.8,30.00,SW,225,0.0,0.0,73,0.00,,,0.13,WUHU21623XXSP,2013-02-08 02:51:00,
2013-02-07 22:01:00,36.5,28.7,30.00,SSE,157,0.0,0.0,73,0.00,,,0.13,WUHU21623XXSP,2013-02-08 03:01:00,
2013-02-07 22:11:00,37.2,29.4,30.00,ENE,67,0.0,0.0,73,0.00,,,0.13,WUHU21623XXSP,2013-02-08 03:11:00,
2013-02-07 22:21:00,37.0,29.2,29.99,SW,225,0.0,0.0,73,0.00,,,0.13,WUHU21623XXSP,2013-02-08 03:21:00,
2013-02-07 22:31:00,37.2,29.4,29.99,South,180,0.0,0.0,73,0.00,,,0.13,WUHU21623XXSP,2013-02-08 03:31:00,
2013-02-07 22:41:00,37.2,29.7,29.98,South,180,0.0,5.4,74,0.00,,,0.13,WUHU21623XXSP,2013-02-08 03:41:00,
2013-02-07 22:51:00,37.2,29.7,29.98,South,180,0.0,0.0,74,0.00,,,0.13,WUHU21623XXSP,2013-02-08 03:51:00,
2013-02-07 23:01:00,37.4,29.9,29.98,South,180,0.0,0.0,74,0.00,,,0.13,WUHU21623XXSP,2013-02-08 04:01:00,
2013-02-07 23:11:00,37.4,29.9,29.97,WSW,247,0.0,0.0,74,0.00,,,0.13,WUHU21623XXSP,2013-02-08 04:11:00,
2013-02-07 23:21:00,37.6,30.4,29.97,South,180,0.0,2.0,75,0.00,,,0.13,WUHU21623XXSP,2013-02-08 04:21:00,
2013-02-07 23:31:00,37.2,30.0,29.97,South,180,0.0,0.0,75,0.00,,,0.13,WUHU21623XXSP,2013-02-08 04:31:00,
2013-02-07 23:41:00,37.2,30.0,29.96,SSE,157,0.0,0.0,75,0.00,,,0.13,WUHU21623XXSP,2013-02-08 04:41:00,
2013-02-07 23:51:00,37.4,30.2,29.96,SSW,202,0.0,5.8,75,0.00,,,0.13,WUHU21623XXSP,2013-02-08 04:51:00,